TIANMU-1 22

Last updated on Tue Jan 14 2025 00:02:18 GMT+0000 (Coordinated Universal Time)

1 58663U 23208D 25013.57399359 .00008338 00000+0 38316-3 0 9999 2 58663 97.4192 127.6919 0005088 29.0202 331.1315 15.20611729 58085
UTC large
Height (km)
Speed (km/s)
/
Latitude / Longitude
Inclination (degrees)
Orbital Period (minutes)
Azimuth
Elevation
Range (km)
Doppler Factor

Next 0 passes for location: London (51.5072 / 0.1276)

Sorry there are no passes over London.